• In Österreich
  • Länderverzeichnis
  • Für 7 Tage
  • Wassertemperatur
  • Satellitenkarten
  • Wetterkarte
  • News
  • Widgets
  • user-avatar
    Anmelden

    Stündliche Wetter Absam

    Heute, 16 Oktober, Dienstag

    Zeit Temperatur Niederschläge Wind Luftdruck Luftfeuchtigkeit
    00:00 +9°C° 0 mm 2 m/S 691 mmHg 85%
    01:00 +9°C° 0 mm 2 m/S 691 mmHg 84%
    02:00 +9°C° 0 mm 2 m/S 691 mmHg 84%
    03:00 +8°C° 0 mm 2 m/S 691 mmHg 83%
    04:00 +8°C° 0 mm 2 m/S 691 mmHg 83%
    05:00 +8°C° 0 mm 2 m/S 691 mmHg 82%
    06:00 +8°C° 0 mm 2 m/S 691 mmHg 81%
    07:00 +9°C° 0 mm 2 m/S 692 mmHg 80%
    08:00 +13°C° 0 mm 1 m/S 692 mmHg 71%
    09:00 +15°C° 0 mm 1 m/S 692 mmHg 61%
    10:00 +19°C° 0 mm 1 m/S 693 mmHg 52%
    11:00 +20°C° 0 mm 1 m/S 693 mmHg 49%
    12:00 +20°C° 0 mm 1 m/S 693 mmHg 46%
    13:00 +21°C° 0 mm 1 m/S 693 mmHg 43%
    14:00 +20°C° 0 mm 1 m/S 693 mmHg 48%
    15:00 +20°C° 0 mm 1 m/S 692 mmHg 52%
    16:00 +19°C° 0 mm 1 m/S 692 mmHg 56%
    17:00 +16°C° 0 mm 1 m/S 692 mmHg 66%
    18:00 +14°C° 0 mm 1 m/S 692 mmHg 76%
    19:00 +12°C° 0 mm 1 m/S 692 mmHg 86%
    20:00 +11°C° 0 mm 1 m/S 692 mmHg 85%
    21:00 +11°C° 0 mm 1 m/S 692 mmHg 85%
    22:00 +11°C° 0 mm 1 m/S 692 mmHg 85%
    23:00 +11°C° 0 mm 1 m/S 692 mmHg 84%

    Morgen, 17 Oktober, Mittwoch

    Zeit Temperatur Niederschläge Wind Luftdruck Luftfeuchtigkeit
    00:00 +10°C° 0 mm 1 m/S 692 mmHg 84%
    01:00 +10°C° 0 mm 1 m/S 692 mmHg 84%
    02:00 +10°C° 0 mm 1 m/S 692 mmHg 84%
    03:00 +10°C° 0 mm 1 m/S 691 mmHg 84%
    04:00 +10°C° 0 mm 1 m/S 691 mmHg 84%
    05:00 +10°C° 0 mm 1 m/S 691 mmHg 84%
    06:00 +10°C° 0 mm 1 m/S 691 mmHg 84%
    07:00 +10°C° 0 mm 1 m/S 691 mmHg 84%
    08:00 +13°C° 0 mm 1 m/S 692 mmHg 74%
    09:00 +14°C° 0 mm 0 m/S 692 mmHg 64%
    10:00 +17°C° 0 mm 0 m/S 692 mmHg 54%
    11:00 +20°C° 0 mm 1 m/S 692 mmHg 52%
    12:00 +20°C° 0 mm 1 m/S 692 mmHg 50%
    13:00 +21°C° 0 mm 1 m/S 692 mmHg 47%
    14:00 +20°C° 0 mm 1 m/S 692 mmHg 52%
    15:00 +20°C° 0 mm 1 m/S 691 mmHg 56%
    16:00 +19°C° 0 mm 1 m/S 691 mmHg 61%
    17:00 +16°C° 0 mm 1 m/S 691 mmHg 71%
    18:00 +13°C° 0 mm 1 m/S 691 mmHg 81%
    19:00 +11°C° 0 mm 1 m/S 691 mmHg 91%
    20:00 +11°C° 0 mm 1 m/S 691 mmHg 90%
    21:00 +11°C° 0 mm 1 m/S 691 mmHg 90%
    22:00 +11°C° 0 mm 1 m/S 691 mmHg 89%
    23:00 +10°C° 0 mm 1 m/S 691 mmHg 88%

    übermorgen, 18 Oktober, Donnerstag

    Zeit Temperatur Niederschläge Wind Luftdruck Luftfeuchtigkeit
    00:00 +10°C° 0 mm 1 m/S 691 mmHg 87%
    01:00 +10°C° 0 mm 1 m/S 691 mmHg 86%
    02:00 +10°C° 0 mm 1 m/S 691 mmHg 86%
    03:00 +10°C° 0 mm 1 m/S 691 mmHg 86%
    04:00 +10°C° 0 mm 1 m/S 690 mmHg 86%
    05:00 +10°C° 0 mm 1 m/S 690 mmHg 86%
    06:00 +10°C° 0 mm 1 m/S 691 mmHg 86%
    07:00 +10°C° 0 mm 1 m/S 691 mmHg 86%
    08:00 +12°C° 0 mm 1 m/S 691 mmHg 77%
    09:00 +15°C° 0 mm 1 m/S 692 mmHg 68%
    10:00 +18°C° 0 mm 1 m/S 692 mmHg 60%
    11:00 +19°C° 0 mm 1 m/S 692 mmHg 57%
    12:00 +20°C° 0 mm 1 m/S 692 mmHg 55%
    13:00 +20°C° 0 mm 1 m/S 692 mmHg 52%
    14:00 +20°C° 0 mm 1 m/S 692 mmHg 57%
    15:00 +19°C° 0 mm 1 m/S 691 mmHg 62%
    16:00 +18°C° 0 mm 1 m/S 691 mmHg 67%
    17:00 +15°C° 0 mm 1 m/S 691 mmHg 76%
    18:00 +13°C° 0 mm 1 m/S 691 mmHg 85%
    19:00 +10°C° 0 mm 0 m/S 691 mmHg 94%
    20:00 +11°C° 0 mm 1 m/S 691 mmHg 94%
    21:00 +11°C° 0 mm 1 m/S 692 mmHg 94%
    22:00 +10°C° 0 mm 1 m/S 692 mmHg 94%
    23:00 +10°C° 0 mm 1 m/S 692 mmHg 93%

    19 Oktober, Freitag

    Zeit Temperatur Niederschläge Wind Luftdruck Luftfeuchtigkeit
    00:00 +10°C° 0 mm 1 m/S 692 mmHg 93%
    01:00 +10°C° 0 mm 1 m/S 692 mmHg 92%
    02:00 +10°C° 0 mm 1 m/S 692 mmHg 91%
    03:00 +10°C° 0 mm 1 m/S 692 mmHg 91%
    04:00 +10°C° 0 mm 1 m/S 691 mmHg 90%
    05:00 +10°C° 0 mm 1 m/S 692 mmHg 89%
    06:00 +10°C° 0 mm 1 m/S 692 mmHg 89%
    07:00 +10°C° 0 mm 1 m/S 692 mmHg 88%
    08:00 +12°C° 0 mm 1 m/S 692 mmHg 80%
    09:00 +15°C° 0 mm 1 m/S 693 mmHg 71%
    10:00 +18°C° 0 mm 1 m/S 694 mmHg 63%
    11:00 +19°C° 0 mm 1 m/S 693 mmHg 60%
    12:00 +20°C° 0 mm 1 m/S 693 mmHg 57%
    13:00 +21°C° 0 mm 1 m/S 693 mmHg 54%
    14:00 +20°C° 0 mm 1 m/S 693 mmHg 59%
    15:00 +19°C° 0 mm 1 m/S 693 mmHg 64%
    16:00 +19°C° 0 mm 1 m/S 693 mmHg 68%
    17:00 +16°C° 0 mm 1 m/S 693 mmHg 77%
    18:00 +14°C° 0 mm 1 m/S 693 mmHg 85%
    19:00 +11°C° 0 mm 0 m/S 693 mmHg 94%
    20:00 +10°C° 0 mm 0 m/S 693 mmHg 94%
    21:00 +10°C° 0 mm 0 m/S 693 mmHg 94%
    22:00 +10°C° 0 mm 0 m/S 694 mmHg 94%
    23:00 +10°C° 0 mm 0 m/S 694 mmHg 94%

    20 Oktober, Samstag

    Zeit Temperatur Niederschläge Wind Luftdruck Luftfeuchtigkeit
    00:00 +9°C° 0 mm 0 m/S 693 mmHg 94%
    01:00 +9°C° 0 mm 0 m/S 693 mmHg 94%
    02:00 +9°C° 0 mm 0 m/S 693 mmHg 94%
    03:00 +10°C° 0 mm 1 m/S 693 mmHg 95%
    04:00 +9°C° 0 mm 1 m/S 693 mmHg 95%
    05:00 +9°C° 0 mm 1 m/S 694 mmHg 95%
    06:00 +9°C° 0 mm 1 m/S 694 mmHg 95%
    07:00 +9°C° 0 mm 1 m/S 694 mmHg 96%
    08:00 +11°C° 0 mm 1 m/S 695 mmHg 89%
    09:00 +13°C° 0 mm 1 m/S 695 mmHg 83%
    10:00 +15°C° 0 mm 1 m/S 695 mmHg 77%
    11:00 +16°C° 0 mm 1 m/S 695 mmHg 70%
    12:00 +18°C° 0 mm 1 m/S 695 mmHg 62%
    13:00 +18°C° 0 mm 2 m/S 695 mmHg 55%
    14:00 +17°C° 0 mm 2 m/S 695 mmHg 61%
    15:00 +16°C° 0 mm 2 m/S 695 mmHg 68%
    16:00 +15°C° 0 mm 2 m/S 695 mmHg 74%
    17:00 +14°C° 0.1 mm 2 m/S 695 mmHg 81%
    18:00 +13°C° 0.1 mm 2 m/S 695 mmHg 88%
    19:00 +11°C° 0.1 mm 1 m/S 695 mmHg 95%
    20:00 +11°C° 0.2 mm 1 m/S 695 mmHg 95%
    21:00 +11°C° 0.2 mm 1 m/S 695 mmHg 95%
    22:00 +11°C° 0.2 mm 1 m/S 696 mmHg 95%
    23:00 +10°C° 0.2 mm 2 m/S 695 mmHg 95%

    21 Oktober, Sonntag

    Zeit Temperatur Niederschläge Wind Luftdruck Luftfeuchtigkeit
    00:00 +9°C° 0.2 mm 2 m/S 695 mmHg 96%
    01:00 +9°C° 0.2 mm 2 m/S 695 mmHg 96%
    02:00 +8°C° 0.1 mm 2 m/S 695 mmHg 96%
    03:00 +8°C° 0.1 mm 2 m/S 695 mmHg 96%
    04:00 +8°C° 0.1 mm 2 m/S 695 mmHg 95%
    05:00 +8°C° 0.1 mm 2 m/S 695 mmHg 95%
    06:00 +7°C° 0.1 mm 2 m/S 695 mmHg 95%
    07:00 +7°C° 0.1 mm 2 m/S 695 mmHg 95%
    08:00 +8°C° 0 mm 2 m/S 695 mmHg 89%
    09:00 +8°C° 0 mm 2 m/S 695 mmHg 83%
    10:00 +9°C° 0 mm 2 m/S 695 mmHg 77%
    11:00 +10°C° 0 mm 2 m/S 695 mmHg 69%
    12:00 +10°C° 0 mm 2 m/S 695 mmHg 61%
    13:00 +11°C° 0 mm 3 m/S 695 mmHg 54%
    14:00 +11°C° 0 mm 3 m/S 694 mmHg 56%
    15:00 +10°C° 0 mm 3 m/S 694 mmHg 58%
    16:00 +9°C° 0 mm 3 m/S 694 mmHg 60%
    17:00 +8°C° 0 mm 2 m/S 694 mmHg 71%
    18:00 +6°C° 0 mm 2 m/S 694 mmHg 81%
    19:00 +5°C° 0 mm 1 m/S 695 mmHg 91%
    20:00 +5°C° 0 mm 1 m/S 695 mmHg 91%
    21:00 +4°C° 0 mm 1 m/S 695 mmHg 92%
    22:00 +4°C° 0 mm 1 m/S 695 mmHg 92%
    23:00 +4°C° 0 mm 1 m/S 695 mmHg 88%
    Mehr zeigen